Regional Weather Roundup
Issued by NWS

Home | Current Version | Previous Version | Text Only | Print | Product List | Glossary On
Versions: 1 2 3 4 5 6 7 8 9 10 11 12 13 14 15 16 17 18 19 20 21 22 23 24 25 26 27 28 29 30 31 32 33 34 35 36 37 38 39 40 41 42 43 44 45 46 47 48 49 50
000
ASUS44 KLIX 020301
RWRLA
LOUISIANA WEATHER ROUNDUP
NATIONAL WEATHER SERVICE NEW ORLEANS LA
1000 PM CDT WED OCT 01 2014

NOTE: "FAIR" INDICATES FEW OR NO CLOUDS BELOW 12,000 FEET WITH NO
      SIGNIFICANT WEATHER AND/OR OBSTRUCTIONS TO VISIBILITY.
      SKY/WX - SKY CONDITION AND SIGNIFICANT WEATHER.
      TMP - AIR TEMPERATURE.    DP   - DEWPOINT TEMPERATURE.
      RH  - RELATIVE HUMIDITY.  PRES - PRESSURE.
      HX  - HEAT INDEX.         WCI  - WIND CHILL INDEX.

*  THESE STATIONS ARE NOT NWS OR FAA STATIONS AND ARE NOT UNDER
   NWS QUALITY CONTROL.

LAZ040-048-061>063-065-066-069-020400-
SOUTHEAST LOUISIANA

CITY           SKY/WX    TMP DP  RH WIND       PRES   REMARKS
N.O. AUDUBON   NOT AVBL
N.O. INTL ARPT PTCLDY    79  75  87 SE7       29.94R
N.O. LAKEFRONT CLEAR     79  75  87 SE9       29.95S
N.O. DOWNTOWN* FAIR      79  72  78 CALM      29.95S
SLIDELL        CLEAR     78  74  87 SE6       29.94S
BATON ROUGE    MOCLDY    76  74  93 SE5       29.93R
BOOTHVILLE     MOCLDY    78  77  96 SE5       29.96R
BELLE CHASSE   PTCLDY    79  74  84 SE5       29.95R
BOGALUSA*      FAIR      77  72  83 SE3       29.96S
GALLIANO*      NOT AVBL
NEW ROADS*     CLOUDY    76  74  93 SE5       29.92R
GONZALES*      FAIR      77  77 100 SE3       29.92S
HAMMOND*       NOT AVBL
HOUMA*         MOCLDY   N/A N/A N/A E3        29.94R
PORT FOURCHON* PTCLDY    81  75  83 SE6       29.98R

$$

LAZ041-044-053-054-020400-
SOUTHWEST LOUISIANA

CITY           SKY/WX    TMP DP  RH WIND       PRES   REMARKS
LAKE CHARLES   MOCLDY    79  77  94 S5        29.88S
LAFAYETTE      MOCLDY    78  75  90 S3        29.91R
PATTERSON      CLEAR     75  75 100 CALM      29.95R
SALT POINT       N/A     82  79  90 VRB3      29.90S
NEW IBERIA     PTCLDY    77  74  90 SE5       29.92R
CHENAULT AIRPK MOCLDY    78  76  95 S5        29.89S

$$

LAZ027-028-020400-
CENTRAL LOUISIANA

CITY           SKY/WX    TMP DP  RH WIND       PRES   REMARKS
FORT POLK      PTCLDY    77  74  92 SE7       29.88R
ALEXANDRIA INT CLEAR     77  74  90 SE7       29.87R
ALEXANDRIA     CLEAR     77  73  87 SE5       29.90R

$$

LAZ001-002-020400-
NORTHWEST LOUISIANA

CITY           SKY/WX    TMP DP  RH WIND       PRES   REMARKS
SHREVEPORT     CLEAR     77  72  84 SE6       29.85R
BARKSDALE AFB  CLEAR     74  70  88 SE8       29.85S
DTN SHREVEPORT CLEAR     76  70  82 SE7       29.85R

$$

LAZ014-016-020400-
NORTHEAST LOUISIANA

CITY           SKY/WX    TMP DP  RH WIND       PRES   REMARKS
MONROE         CLEAR     78  72  81 SE3       29.90R
TALLULAH       PTCLDY    79  71  76 S12       29.91R

$$



USA.gov is the U.S. government's official web portal to all federal, state and local government web resources and services.